星链-11656 (STARLINK-11656)

导读

STARLINK-11656是美国太空探索技术公司SpaceX星链星座中的一颗卫星,于2025年4月28日发射入轨,星链星座旨在为全球用户提供覆盖全球、低延迟的高速宽带互联网服务,该卫星承担星座组网扩容任务,进一步完善全球卫星互联网的覆盖与服务能力,助力全球偏远地区网络接入与全球通信基础设施的补充建设。

基本信息
目录编号:
63674
目录名称:
STARLINK-11656
国际标识:
2025-085L
轨道中心:
EARTH
卫星名称:
星链-11656
卫星全名:
星链-11656 (STARLINK-11656)
卫星状态:
在轨 (已飞行495 天)
发射日期:
2025-04-28 UTC
国别 :
美国 (US)
星等 :
--
轨道信息
数据来源 国际轨道数据
星历时间: 2026-09-05T14:01:10+0800
8小时前
查看轨道信息
半长轴: 6733.981km
偏心率: 0.0002174
轨道倾角: 42.999°
近地点辐角 236.535°
升交点赤经 275.944°
平近点角 123.531°
近地点: 354.38km
远地点: 357.308km
周期: 91.657分钟
每日圈数: 15.710679
详细信息
固有亮度:
5
最大亮度:
2.5
卫星平台:
Starlink V1.0
覆盖范围:
全球
运营商:
太空探索技术公司
运营商所在国:
美国
制造商(研发单位):
太空探索技术公司
制造商所在国:
美国
使用方式:
暂无
卫星简介
Starlink 计划是 SpaceX 推出的全球卫星互联网项目,通过发射低轨道卫星,为全球尤其是偏远地区提供高速、低延迟的互联网服务。自 2019 年起,Starlink 已部署数千颗卫星,旨在缩小全球数字鸿沟,推动互联网普及。该项目还为军事、航空等行业提供通信支持,带来广泛经济效益。
2D轨道图
3D轨道图
轨道高度分析图
轨道倾角分析图
轨道综合分析图
查看轨道综合分析图
交会数据列表
事件ID 空间交会对象 最接近时刻(TCA) 交会距离 交会风险概率(CRP) 交会风险指数(CRI) 操作
CDM_260907-061906-367406-424121
2026-09-07T
06:19:52+0000
1.565 km
极远距离
3.190692E-6 低风险 0.45
CDM_260907-083706-367406-424121
2026-09-07T
08:37:08+0000
1.635 km
极远距离
2.801804E-6 低风险 0.44
CDM_260906-064206-221806-367421
2026-09-06T
06:42:15+0000
2.744 km
极远距离
5.726926E-7 极低风险 0.3